SUR4111 SCEL-SUMU

Flight info

Callsign SUR4111
Flight time 1h 53m
Altitude 37000
Route ALBAL UM424 ASADA UW68 EZE UM424 DORVO
Aircraft B737/M-SDE3FGHIRWY/LB1

Departure

Time 2026-05-09 08:20
Airport Comodoro Arturo Merino Benítez International Airport (SCEL)

Arrival

Time 2026-05-09 10:13
Airport Carrasco General Cesáreo L. Berisso International Airport (SUMU)
Time Latitude Longitude Altitude Speed Heading
2026-05-09 07:52 -33.39586 -70.79024 1564 ft 0 kts 186°
2026-05-09 08:05 -33.39584 -70.79024 1564 ft 2 kts 185°
2026-05-09 08:05 -33.39569 -70.79024 1564 ft 2 kts 187°
2026-05-09 08:05 -33.39555 -70.79022 1564 ft 2 kts 186°
2026-05-09 08:06 -33.39543 -70.79020 1564 ft 0 kts 186°
2026-05-09 08:06 -33.39530 -70.79020 1564 ft 2 kts 166°
2026-05-09 08:06 -33.39517 -70.79027 1564 ft 2 kts 144°
2026-05-09 08:06 -33.39507 -70.79040 1564 ft 2 kts 120°
2026-05-09 08:07 -33.39501 -70.79057 1564 ft 1 kts 97°
2026-05-09 08:07 -33.39501 -70.79064 1564 ft 1 kts 88°
2026-05-09 08:07 -33.39501 -70.79067 1564 ft 0 kts 90°
2026-05-09 08:10 -33.39501 -70.79056 1564 ft 1 kts 89°
2026-05-09 08:10 -33.39500 -70.79025 1564 ft 4 kts 87°
2026-05-09 08:10 -33.39498 -70.78992 1564 ft 3 kts 87°
2026-05-09 08:11 -33.39497 -70.78960 1564 ft 5 kts 87°
2026-05-09 08:11 -33.39521 -70.78900 1564 ft 11 kts 147°
2026-05-09 08:11 -33.39600 -70.78884 1564 ft 11 kts 176°
2026-05-09 08:11 -33.39672 -70.78879 1564 ft 9 kts 177°
2026-05-09 08:12 -33.39788 -70.78872 1564 ft 7 kts 178°
2026-05-09 08:12 -33.39852 -70.78869 1564 ft 10 kts 177°
2026-05-09 08:12 -33.39940 -70.78863 1564 ft 15 kts 177°
2026-05-09 08:13 -33.40058 -70.78857 1564 ft 17 kts 177°
2026-05-09 08:13 -33.40174 -70.78851 1564 ft 15 kts 178°
2026-05-09 08:13 -33.40277 -70.78846 1564 ft 14 kts 178°
2026-05-09 08:13 -33.40372 -70.78840 1564 ft 12 kts 177°
2026-05-09 08:14 -33.40410 -70.78838 1564 ft 0 kts 177°
2026-05-09 08:14 -33.40416 -70.78841 1564 ft 1 kts 222°
2026-05-09 08:14 -33.40403 -70.78850 1564 ft 4 kts 11°
2026-05-09 08:14 -33.40394 -70.78825 1564 ft 3 kts 79°
2026-05-09 08:15 -33.40390 -70.78768 1564 ft 8 kts 90°
2026-05-09 08:15 -33.40412 -70.78708 1564 ft 7 kts 140°
2026-05-09 08:15 -33.40455 -70.78668 1564 ft 7 kts 136°
2026-05-09 08:15 -33.40467 -70.78651 1564 ft 0 kts 122°
2026-05-09 08:18 -33.40476 -70.78606 1564 ft 7 kts 92°
2026-05-09 08:19 -33.40461 -70.78545 1564 ft 8 kts 55°
2026-05-09 08:19 -33.40407 -70.78523 1564 ft 9 kts 357°
2026-05-09 08:19 -33.40221 -70.78532 1564 ft 59 kts 357°
2026-05-09 08:19 -33.39563 -70.78567 1564 ft 127 kts 357°
2026-05-09 08:20 -33.38562 -70.78626 1892 ft 148 kts 357°
2026-05-09 08:20 -33.37564 -70.78679 2532 ft 148 kts 358°
2026-05-09 08:20 -33.36522 -70.78696 3078 ft 154 kts
2026-05-09 08:20 -33.35456 -70.78708 3651 ft 157 kts 357°
2026-05-09 08:21 -33.34272 -70.78757 3962 ft 182 kts 358°
2026-05-09 08:21 -33.32938 -70.78800 4336 ft 205 kts 358°
2026-05-09 08:21 -33.31453 -70.78849 4791 ft 226 kts 358°
2026-05-09 08:21 -33.29819 -70.78880 5353 ft 243 kts
2026-05-09 08:22 -33.28186 -70.78256 5880 ft 262 kts 36°
2026-05-09 08:22 -33.26952 -70.76627 6677 ft 270 kts 53°
2026-05-09 08:22 -33.26022 -70.74662 7491 ft 277 kts 72°
2026-05-09 08:22 -33.25970 -70.72404 8290 ft 282 kts 105°
2026-05-09 08:23 -33.26818 -70.70299 9151 ft 284 kts 124°
2026-05-09 08:23 -33.28165 -70.68597 9937 ft 288 kts 148°
2026-05-09 08:23 -33.30051 -70.67868 10620 ft 294 kts 178°
2026-05-09 08:23 -33.32109 -70.67928 11282 ft 303 kts 181°
2026-05-09 08:24 -33.34219 -70.67789 12041 ft 309 kts 175°
2026-05-09 08:24 -33.36359 -70.67587 12775 ft 313 kts 178°
2026-05-09 08:24 -33.38529 -70.67446 13550 ft 317 kts 179°
2026-05-09 08:24 -33.40721 -70.67313 14304 ft 320 kts 179°
2026-05-09 08:25 -33.42912 -70.67179 14966 ft 313 kts 179°
2026-05-09 08:25 -33.45114 -70.66884 15676 ft 325 kts 172°
2026-05-09 08:25 -33.47327 -70.66228 16544 ft 332 kts 166°
2026-05-09 08:25 -33.49515 -70.65395 17433 ft 335 kts 166°
2026-05-09 08:26 -33.51725 -70.64571 18300 ft 338 kts 166°
2026-05-09 08:26 -33.53988 -70.63726 19152 ft 342 kts 166°
2026-05-09 08:26 -33.56239 -70.62869 19980 ft 345 kts 166°
2026-05-09 08:26 -33.58526 -70.61992 20790 ft 348 kts 167°
2026-05-09 08:27 -33.60824 -70.61111 21582 ft 350 kts 167°
2026-05-09 08:27 -33.63138 -70.60222 22346 ft 353 kts 167°
2026-05-09 08:27 -33.65448 -70.59333 23090 ft 355 kts 167°
2026-05-09 08:27 -33.67804 -70.58425 23813 ft 357 kts 167°
2026-05-09 08:28 -33.70145 -70.57523 24533 ft 359 kts 167°
2026-05-09 08:28 -33.72513 -70.56609 25210 ft 361 kts 167°
2026-05-09 08:28 -33.74910 -70.55682 25883 ft 363 kts 168°
2026-05-09 08:28 -33.77304 -70.54758 26532 ft 365 kts 168°
2026-05-09 08:29 -33.79693 -70.53834 27160 ft 366 kts 168°
2026-05-09 08:29 -33.82110 -70.52898 27768 ft 368 kts 168°
2026-05-09 08:29 -33.84555 -70.51952 28350 ft 370 kts 168°
2026-05-09 08:29 -33.87008 -70.51001 28926 ft 371 kts 168°
2026-05-09 08:30 -33.89428 -70.49931 29494 ft 377 kts 161°
2026-05-09 08:30 -33.91688 -70.48315 30025 ft 387 kts 149°
2026-05-09 08:30 -33.93632 -70.46000 30516 ft 400 kts 135°
2026-05-09 08:30 -33.95141 -70.43150 31029 ft 411 kts 124°
2026-05-09 08:31 -33.96332 -70.40031 31518 ft 416 kts 121°
2026-05-09 08:31 -33.97505 -70.36844 31983 ft 417 kts 122°
2026-05-09 08:31 -33.98724 -70.33678 32445 ft 418 kts 122°
2026-05-09 08:31 -33.99943 -70.30539 32866 ft 420 kts 122°
2026-05-09 08:32 -34.01178 -70.27319 33348 ft 420 kts 122°
2026-05-09 08:32 -34.02387 -70.24125 33720 ft 423 kts 122°
2026-05-09 08:32 -34.04805 -70.17692 34517 ft 426 kts 122°
2026-05-09 08:33 -34.06032 -70.14439 34820 ft 430 kts 122°
2026-05-09 08:33 -34.07278 -70.11144 35133 ft 432 kts 122°
2026-05-09 08:33 -34.08522 -70.07860 35402 ft 436 kts 122°
2026-05-09 08:33 -34.09782 -70.04527 35841 ft 435 kts 122°
2026-05-09 08:34 -34.11027 -70.01224 36307 ft 433 kts 122°
2026-05-09 08:34 -34.12266 -69.97932 36799 ft 431 kts 122°
2026-05-09 08:34 -34.13491 -69.94673 37080 ft 432 kts 122°
2026-05-09 08:35 -34.15981 -69.88028 37075 ft 437 kts 122°
2026-05-09 08:35 -34.18125 -69.81155 37074 ft 443 kts 112°
2026-05-09 08:36 -34.19279 -69.73789 37074 ft 449 kts 107°
2026-05-09 08:36 -34.20360 -69.66352 37074 ft 449 kts 108°
2026-05-09 08:37 -34.21428 -69.58949 37076 ft 449 kts 107°
2026-05-09 08:37 -34.22451 -69.51550 37157 ft 447 kts 107°
2026-05-09 08:38 -34.23476 -69.44147 37249 ft 448 kts 108°
2026-05-09 08:38 -34.24500 -69.36744 37340 ft 448 kts 107°
2026-05-09 08:39 -34.25499 -69.29309 37371 ft 449 kts 107°
2026-05-09 08:39 -34.26490 -69.21846 37371 ft 449 kts 107°
2026-05-09 08:40 -34.27481 -69.14432 37371 ft 449 kts 107°
2026-05-09 08:40 -34.28487 -69.06975 37371 ft 450 kts 107°
2026-05-09 08:41 -34.29470 -68.99531 37371 ft 450 kts 107°
2026-05-09 08:41 -34.30444 -68.92080 37371 ft 451 kts 108°
2026-05-09 08:42 -34.31417 -68.84602 37371 ft 452 kts 108°
2026-05-09 08:42 -34.32388 -68.77097 37371 ft 452 kts 108°
2026-05-09 08:43 -34.33351 -68.69621 37371 ft 451 kts 108°
2026-05-09 08:43 -34.34311 -68.62133 37371 ft 451 kts 108°
2026-05-09 08:44 -34.35268 -68.54633 37371 ft 451 kts 108°
2026-05-09 08:44 -34.36224 -68.47105 37371 ft 451 kts 108°
2026-05-09 08:45 -34.37167 -68.39630 37371 ft 451 kts 108°
2026-05-09 08:45 -34.38106 -68.32160 37371 ft 451 kts 107°
2026-05-09 08:46 -34.39045 -68.24654 37371 ft 452 kts 107°
2026-05-09 08:46 -34.39981 -68.17130 37371 ft 452 kts 107°
2026-05-09 08:47 -34.40907 -68.09644 37371 ft 451 kts 107°
2026-05-09 08:47 -34.41832 -68.02137 37371 ft 451 kts 107°
2026-05-09 08:48 -34.42757 -67.94587 37371 ft 454 kts 107°
2026-05-09 08:48 -34.43675 -67.87059 37362 ft 455 kts 107°
2026-05-09 08:49 -34.44590 -67.79493 37345 ft 454 kts 107°
2026-05-09 08:49 -34.45475 -67.71939 37328 ft 454 kts 107°
2026-05-09 08:50 -34.46354 -67.64349 37317 ft 454 kts 107°
2026-05-09 08:50 -34.47224 -67.56819 37317 ft 454 kts 107°
2026-05-09 08:51 -34.48091 -67.49262 37317 ft 454 kts 107°
2026-05-09 08:51 -34.48952 -67.41732 37317 ft 454 kts 107°
2026-05-09 08:52 -34.49814 -67.34139 37317 ft 454 kts 106°
2026-05-09 08:52 -34.50667 -67.26598 37317 ft 455 kts 106°
2026-05-09 08:53 -34.51519 -67.19005 37317 ft 455 kts 106°
2026-05-09 08:53 -34.52372 -67.11401 37317 ft 461 kts 105°
2026-05-09 08:54 -34.53234 -67.03656 37317 ft 468 kts 103°
2026-05-09 08:54 -34.54100 -66.95791 37317 ft 469 kts 102°
2026-05-09 08:55 -34.54948 -66.88035 37317 ft 467 kts 102°
2026-05-09 08:55 -34.55801 -66.80209 37317 ft 467 kts 102°
2026-05-09 08:56 -34.56643 -66.72442 37317 ft 467 kts 102°
2026-05-09 08:56 -34.57482 -66.64655 37317 ft 467 kts 102°
2026-05-09 08:57 -34.58315 -66.56875 37317 ft 467 kts 102°
2026-05-09 08:57 -34.59151 -66.49023 37317 ft 467 kts 102°
2026-05-09 08:58 -34.59975 -66.41232 37311 ft 467 kts 102°
2026-05-09 08:58 -34.60793 -66.33451 37302 ft 467 kts 101°
2026-05-09 08:59 -34.61606 -66.25668 37293 ft 467 kts 101°
2026-05-09 08:59 -34.62417 -66.17855 37290 ft 467 kts 101°
2026-05-09 09:00 -34.63220 -66.10067 37290 ft 467 kts 101°
2026-05-09 09:00 -34.64025 -66.02218 37290 ft 467 kts 101°
2026-05-09 09:01 -34.64819 -65.94415 37290 ft 467 kts 101°
2026-05-09 09:01 -34.65608 -65.86625 37290 ft 467 kts 101°
2026-05-09 09:02 -34.66393 -65.78804 37290 ft 467 kts 101°
2026-05-09 09:02 -34.67169 -65.71037 37290 ft 467 kts 101°
2026-05-09 09:03 -34.67946 -65.63207 37290 ft 467 kts 101°
2026-05-09 09:03 -34.68714 -65.55413 37290 ft 467 kts 101°
2026-05-09 09:04 -34.69482 -65.47563 37290 ft 467 kts 101°
2026-05-09 09:04 -34.70242 -65.39752 37290 ft 467 kts 101°
2026-05-09 09:05 -34.70992 -65.31976 37290 ft 467 kts 101°
2026-05-09 09:05 -34.71744 -65.24123 37290 ft 467 kts 101°
2026-05-09 09:06 -34.72485 -65.16335 37290 ft 467 kts 101°
2026-05-09 09:06 -34.73225 -65.08505 37290 ft 467 kts 101°
2026-05-09 09:07 -34.73959 -65.00684 37290 ft 468 kts 100°
2026-05-09 09:07 -34.74696 -64.92801 37290 ft 477 kts 99°
2026-05-09 09:08 -34.75441 -64.84739 37290 ft 484 kts 98°
2026-05-09 09:08 -34.76187 -64.76601 37290 ft 485 kts 97°
2026-05-09 09:09 -34.76924 -64.68505 37290 ft 483 kts 97°
2026-05-09 09:09 -34.77660 -64.60397 37290 ft 483 kts 97°
2026-05-09 09:10 -34.78404 -64.52276 37290 ft 483 kts 97°
2026-05-09 09:10 -34.79138 -64.44188 37290 ft 483 kts 97°
2026-05-09 09:11 -34.79867 -64.36078 37290 ft 483 kts 97°
2026-05-09 09:11 -34.80592 -64.27961 37283 ft 483 kts 96°
2026-05-09 09:12 -34.81313 -64.19832 37262 ft 483 kts 96°
2026-05-09 09:12 -34.82026 -64.11726 37237 ft 483 kts 96°
2026-05-09 09:13 -34.82730 -64.03655 37218 ft 483 kts 97°
2026-05-09 09:13 -34.83435 -63.95504 37213 ft 483 kts 96°
2026-05-09 09:14 -34.84129 -63.87404 37209 ft 483 kts 96°
2026-05-09 09:14 -34.84819 -63.79280 37201 ft 483 kts 97°
2026-05-09 09:15 -34.85503 -63.71170 37191 ft 483 kts 97°
2026-05-09 09:15 -34.86183 -63.63034 37184 ft 483 kts 97°
2026-05-09 09:16 -34.86857 -63.54901 37182 ft 483 kts 97°
2026-05-09 09:16 -34.87865 -63.42735 37182 ft 483 kts 97°
2026-05-09 09:17 -34.88532 -63.34628 37181 ft 483 kts 96°
2026-05-09 09:17 -34.89194 -63.26495 37182 ft 483 kts 96°
2026-05-09 09:18 -34.89851 -63.18383 37182 ft 482 kts 96°
2026-05-09 09:18 -34.90499 -63.10293 37182 ft 482 kts 96°
2026-05-09 09:19 -34.91145 -63.02155 37182 ft 485 kts 96°
2026-05-09 09:19 -34.91792 -62.93939 37182 ft 488 kts 95°
2026-05-09 09:20 -34.92433 -62.85726 37182 ft 489 kts 95°
2026-05-09 09:20 -34.93072 -62.77470 37182 ft 489 kts 95°
2026-05-09 09:21 -34.93702 -62.69250 37182 ft 488 kts 95°
2026-05-09 09:21 -34.94322 -62.61073 37182 ft 487 kts 95°
2026-05-09 09:22 -34.94933 -62.52841 37182 ft 487 kts 95°
2026-05-09 09:22 -34.95538 -62.44642 37182 ft 487 kts 95°
2026-05-09 09:23 -34.96136 -62.36462 37172 ft 487 kts 95°
2026-05-09 09:23 -34.96699 -62.28502 37136 ft 486 kts 93°
2026-05-09 09:24 -34.96970 -62.20301 37099 ft 486 kts 91°
2026-05-09 09:24 -34.97206 -62.12084 37074 ft 486 kts 91°
2026-05-09 09:25 -34.97468 -62.03874 37074 ft 486 kts 91°
2026-05-09 09:25 -34.97723 -61.95628 37074 ft 486 kts 91°
2026-05-09 09:26 -34.97973 -61.87451 37074 ft 486 kts 91°
2026-05-09 09:26 -34.98221 -61.79216 37074 ft 485 kts 91°
2026-05-09 09:27 -34.98462 -61.71046 37074 ft 485 kts 91°
2026-05-09 09:27 -34.98699 -61.62841 37074 ft 485 kts 91°
2026-05-09 09:28 -34.98931 -61.54588 37074 ft 485 kts 91°
2026-05-09 09:28 -34.99146 -61.46426 37074 ft 485 kts 91°
2026-05-09 09:29 -34.99358 -61.38203 37074 ft 485 kts 91°
2026-05-09 09:29 -34.99565 -61.30014 37074 ft 484 kts 91°
2026-05-09 09:30 -34.99767 -61.21791 37074 ft 484 kts 91°
2026-05-09 09:30 -34.99963 -61.13596 37074 ft 485 kts 91°
2026-05-09 09:31 -35.00154 -61.05359 37074 ft 487 kts 91°
2026-05-09 09:32 -35.00431 -60.92970 37064 ft 490 kts 91°
2026-05-09 09:32 -35.00609 -60.84684 37012 ft 489 kts 91°
2026-05-09 09:33 -35.00782 -60.76387 36959 ft 488 kts 91°
2026-05-09 09:33 -35.00948 -60.68137 36917 ft 488 kts 91°
2026-05-09 09:34 -35.01109 -60.59883 36903 ft 488 kts 91°
2026-05-09 09:34 -35.01263 -60.51649 36891 ft 488 kts 91°
2026-05-09 09:36 -35.01829 -60.18606 36885 ft 487 kts 90°
2026-05-09 09:37 -35.01956 -60.10399 36885 ft 487 kts 90°
2026-05-09 09:37 -35.02077 -60.02160 36885 ft 487 kts 90°
2026-05-09 09:38 -35.02193 -59.93894 36885 ft 486 kts 90°
2026-05-09 09:38 -35.02303 -59.85710 36885 ft 486 kts 90°
2026-05-09 09:39 -35.02408 -59.77451 36885 ft 486 kts 90°
2026-05-09 09:39 -35.02506 -59.69229 36885 ft 486 kts 90°
2026-05-09 09:40 -35.02124 -59.61046 36884 ft 484 kts 79°
2026-05-09 09:40 -35.00721 -59.52999 36885 ft 485 kts 76°
2026-05-09 09:41 -34.99321 -59.44967 36884 ft 488 kts 76°
2026-05-09 09:41 -34.97879 -59.36834 36884 ft 490 kts 76°
2026-05-09 09:42 -34.96410 -59.28717 36885 ft 492 kts 75°
2026-05-09 09:42 -34.94929 -59.20593 36885 ft 494 kts 75°
2026-05-09 09:43 -34.93427 -59.12413 36885 ft 496 kts 75°
2026-05-09 09:43 -34.91918 -59.04240 36885 ft 498 kts 74°
2026-05-09 09:44 -34.90376 -58.95935 36885 ft 503 kts 75°
2026-05-09 09:44 -34.88821 -58.87597 36885 ft 510 kts 75°
2026-05-09 09:45 -34.87233 -58.79119 36885 ft 517 kts 75°
2026-05-09 09:45 -34.85624 -58.70556 36884 ft 517 kts 75°
2026-05-09 09:46 -34.84016 -58.62029 36885 ft 516 kts 75°
2026-05-09 09:46 -34.82439 -58.53541 36885 ft 516 kts 77°
2026-05-09 09:47 -34.81482 -58.44875 36889 ft 518 kts 83°
2026-05-09 09:47 -34.80633 -58.36192 36894 ft 518 kts 82°
2026-05-09 09:48 -34.79725 -58.27547 36909 ft 515 kts 79°
2026-05-09 09:48 -34.78820 -58.18921 36900 ft 513 kts 80°
2026-05-09 09:49 -34.77919 -58.10259 36890 ft 515 kts 80°
2026-05-09 09:49 -34.77016 -58.01693 36775 ft 512 kts 79°
2026-05-09 09:49 -34.76559 -57.97380 36072 ft 513 kts 79°
2026-05-09 09:50 -34.76099 -57.93077 35282 ft 516 kts 79°
2026-05-09 09:50 -34.75639 -57.88781 34445 ft 519 kts 79°
2026-05-09 09:50 -34.75171 -57.84422 33566 ft 523 kts 80°
2026-05-09 09:50 -34.74701 -57.80064 32719 ft 525 kts 80°
2026-05-09 09:51 -34.74226 -57.75659 32068 ft 513 kts 80°
2026-05-09 09:51 -34.73776 -57.71472 31429 ft 496 kts 80°
2026-05-09 09:51 -34.73336 -57.67407 30799 ft 480 kts 80°
2026-05-09 09:51 -34.72907 -57.63477 30184 ft 466 kts 80°
2026-05-09 09:52 -34.72474 -57.59532 29573 ft 470 kts 81°
2026-05-09 09:52 -34.72042 -57.55621 28950 ft 470 kts 81°
2026-05-09 09:52 -34.71619 -57.51704 28290 ft 469 kts 82°
2026-05-09 09:52 -34.71371 -57.47754 27610 ft 461 kts 87°
2026-05-09 09:53 -34.71272 -57.43977 27008 ft 446 kts 88°
2026-05-09 09:53 -34.71165 -57.40198 26408 ft 446 kts 87°
2026-05-09 09:53 -34.71030 -57.36445 25804 ft 446 kts 87°
2026-05-09 09:53 -34.70889 -57.32705 25203 ft 445 kts 86°
2026-05-09 09:54 -34.70752 -57.28975 24595 ft 440 kts 86°
2026-05-09 09:54 -34.70616 -57.25323 24006 ft 423 kts 86°
2026-05-09 09:54 -34.70484 -57.21829 23451 ft 413 kts 86°
2026-05-09 09:54 -34.70351 -57.18356 22884 ft 413 kts 87°
2026-05-09 09:55 -34.70217 -57.14908 22320 ft 412 kts 87°
2026-05-09 09:55 -34.70081 -57.11423 21751 ft 411 kts 87°
2026-05-09 09:55 -34.69943 -57.07951 21177 ft 411 kts 87°
2026-05-09 09:55 -34.69805 -57.04495 20602 ft 410 kts 87°
2026-05-09 09:56 -34.69670 -57.01120 20031 ft 395 kts 87°
2026-05-09 09:56 -34.69538 -56.97861 19497 ft 384 kts 87°
2026-05-09 09:56 -34.69407 -56.94638 18953 ft 385 kts 87°
2026-05-09 09:56 -34.69273 -56.91368 18428 ft 383 kts 87°
2026-05-09 09:57 -34.69141 -56.88185 17900 ft 383 kts 87°
2026-05-09 09:57 -34.69009 -56.85020 17363 ft 368 kts 87°
2026-05-09 09:57 -34.68882 -56.81981 16862 ft 355 kts 87°
2026-05-09 09:57 -34.68756 -56.78969 16361 ft 361 kts 87°
2026-05-09 09:58 -34.68625 -56.75892 15841 ft 360 kts 87°
2026-05-09 09:58 -34.68497 -56.72880 15332 ft 360 kts 87°
2026-05-09 09:58 -34.68368 -56.69865 14823 ft 359 kts 87°
2026-05-09 09:58 -34.68239 -56.66888 14311 ft 345 kts 87°
2026-05-09 09:59 -34.68116 -56.64032 13840 ft 337 kts 87°
2026-05-09 09:59 -34.67992 -56.61204 13354 ft 334 kts 87°
2026-05-09 09:59 -34.67868 -56.58362 12871 ft 334 kts 87°
2026-05-09 09:59 -34.67746 -56.55578 12395 ft 333 kts 87°
2026-05-09 10:00 -34.67622 -56.52786 11907 ft 325 kts 87°
2026-05-09 10:00 -34.67502 -56.50096 11457 ft 315 kts 87°
2026-05-09 10:00 -34.67383 -56.47435 10999 ft 315 kts 87°
2026-05-09 10:00 -34.67265 -56.44800 10545 ft 315 kts 87°
2026-05-09 10:01 -34.67146 -56.42171 10181 ft 301 kts 87°
2026-05-09 10:01 -34.67035 -56.39727 10035 ft 283 kts 87°
2026-05-09 10:01 -34.66924 -56.37290 9823 ft 288 kts 87°
2026-05-09 10:01 -34.66816 -56.34916 9459 ft 275 kts 86°
2026-05-09 10:02 -34.66709 -56.32594 9122 ft 280 kts 86°
2026-05-09 10:02 -34.66600 -56.30238 8762 ft 280 kts 86°
2026-05-09 10:02 -34.66492 -56.27890 8412 ft 279 kts 86°
2026-05-09 10:02 -34.66382 -56.25531 8061 ft 279 kts 86°
2026-05-09 10:03 -34.66273 -56.23195 7712 ft 278 kts 86°
2026-05-09 10:03 -34.66164 -56.20873 7365 ft 277 kts 86°
2026-05-09 10:03 -34.66054 -56.18547 7020 ft 273 kts 86°
2026-05-09 10:03 -34.65950 -56.16323 6674 ft 259 kts 86°
2026-05-09 10:04 -34.65848 -56.14187 6354 ft 245 kts 86°
2026-05-09 10:04 -34.65752 -56.12165 6053 ft 233 kts 86°
2026-05-09 10:04 -34.65661 -56.10263 5791 ft 221 kts 86°
2026-05-09 10:04 -34.65573 -56.08422 5493 ft 215 kts 86°
2026-05-09 10:05 -34.65486 -56.06626 5218 ft 213 kts 86°
2026-05-09 10:05 -34.65400 -56.04847 4949 ft 212 kts 85°
2026-05-09 10:05 -34.65314 -56.03055 4698 ft 211 kts 85°
2026-05-09 10:05 -34.65228 -56.01299 4576 ft 209 kts 85°
2026-05-09 10:06 -34.65141 -55.99513 4507 ft 211 kts 85°
2026-05-09 10:06 -34.65056 -55.97758 4433 ft 211 kts 85°
2026-05-09 10:06 -34.64969 -55.95987 4358 ft 211 kts 85°
2026-05-09 10:06 -34.64881 -55.94199 4282 ft 210 kts 86°
2026-05-09 10:07 -34.65077 -55.92455 4165 ft 211 kts 115°
2026-05-09 10:07 -34.66033 -55.91156 3954 ft 208 kts 148°
2026-05-09 10:07 -34.67238 -55.90154 3728 ft 208 kts 144°
2026-05-09 10:07 -34.68359 -55.89095 3641 ft 207 kts 145°
2026-05-09 10:08 -34.69515 -55.88044 3442 ft 207 kts 145°
2026-05-09 10:08 -34.70671 -55.87001 3248 ft 205 kts 145°
2026-05-09 10:08 -34.71891 -55.86131 3084 ft 203 kts 167°
2026-05-09 10:08 -34.73207 -55.86303 2990 ft 192 kts 211°
2026-05-09 10:09 -34.74161 -55.87403 2888 ft 185 kts 235°
2026-05-09 10:09 -34.74953 -55.88573 2668 ft 171 kts 234°
2026-05-09 10:09 -34.75631 -55.89659 2466 ft 151 kts 236°
2026-05-09 10:09 -34.76207 -55.90595 2310 ft 133 kts 237°
2026-05-09 10:10 -34.76754 -55.91487 2128 ft 131 kts 237°
2026-05-09 10:10 -34.77297 -55.92373 1924 ft 130 kts 238°
2026-05-09 10:10 -34.77834 -55.93251 1739 ft 127 kts 238°
2026-05-09 10:10 -34.78353 -55.94100 1568 ft 124 kts 238°
2026-05-09 10:11 -34.78859 -55.94927 1416 ft 124 kts 238°
2026-05-09 10:11 -34.79385 -55.95789 1248 ft 130 kts 237°
2026-05-09 10:11 -34.79932 -55.96683 1063 ft 132 kts 237°
2026-05-09 10:11 -34.80483 -55.97584 882 ft 132 kts 237°
2026-05-09 10:12 -34.81026 -55.98474 706 ft 133 kts 238°
2026-05-09 10:12 -34.81584 -55.99388 527 ft 133 kts 238°
2026-05-09 10:12 -34.82127 -56.00251 371 ft 126 kts 236°
2026-05-09 10:12 -34.82634 -56.01091 141 ft 120 kts 239°
2026-05-09 10:13 -34.83089 -56.01850 84 ft 95 kts 235°
2026-05-09 10:13 -34.83394 -56.02348 78 ft 51 kts 233°
2026-05-09 10:13 -34.83570 -56.02645 73 ft 39 kts 233°
2026-05-09 10:13 -34.83712 -56.02842 69 ft 21 kts 199°
2026-05-09 10:14 -34.83820 -56.02851 65 ft 1 kts 180°
2026-05-09 10:14 -34.83834 -56.02851 65 ft 2 kts 180°
2026-05-09 10:14 -34.83838 -56.02851 65 ft 0 kts 180°
2026-05-09 10:14 -34.83839 -56.02851 65 ft 0 kts 180°
2026-05-09 10:15 -34.83863 -56.02849 64 ft 7 kts 173°
2026-05-09 10:15 -34.83916 -56.02828 63 ft 8 kts 152°
2026-05-09 10:15 -34.83966 -56.02790 62 ft 8 kts 139°
2026-05-09 10:15 -34.83977 -56.02728 62 ft 6 kts 75°
2026-05-09 10:16 -34.83961 -56.02678 63 ft 5 kts 70°
2026-05-09 10:16 -34.83952 -56.02638 63 ft 6 kts 75°
2026-05-09 10:16 -34.83949 -56.02540 63 ft 13 kts 90°
2026-05-09 10:16 -34.83949 -56.02427 63 ft 12 kts 89°
2026-05-09 10:17 -34.83952 -56.02325 63 ft 11 kts 90°
2026-05-09 10:17 -34.83918 -56.02258 65 ft 9 kts 20°
2026-05-09 10:17 -34.83865 -56.02246 67 ft 6 kts
2026-05-09 10:17 -34.83804 -56.02235 69 ft 12 kts 18°
2026-05-09 10:18 -34.83730 -56.02147 72 ft 18 kts 51°
2026-05-09 10:18 -34.83659 -56.02032 75 ft 15 kts 53°
2026-05-09 10:18 -34.83601 -56.01937 76 ft 12 kts 53°
2026-05-09 10:18 -34.83555 -56.01862 78 ft 8 kts 52°
2026-05-09 10:19 -34.83537 -56.01805 80 ft 9 kts 92°
2026-05-09 10:19 -34.83567 -56.01740 79 ft 4 kts 140°
2026-05-09 10:19 -34.83590 -56.01718 78 ft 1 kts 142°
2026-05-09 10:19 -34.83591 -56.01717 78 ft 0 kts 142°